333P/LINEAR (2016)

Japanese version
Home page
Updated on December 31, 2016

---------------------------------------------------------------------

* Profile

* Pictures

* Orbital Elements

Epoch 2016 Apr. 2.0 TT = JDT 2457480.5
T 2016 Apr. 3.89028 TT                                  MPCW
q   1.1151598            (2000.0)            P               Q
n   0.11349781     Peri.   26.14442     -0.12205202     +0.73071977
a   4.2248478      Node   115.56567     +0.72892642     -0.39330795
e   0.7360473      Incl.  131.87703     +0.67362421     +0.55799416
P   8.68
From 617 observations 2007 Nov. 4-2016 Oct. 1, mean residual 0".5.

* Finding Charts

* Magnitudes Graph

        H = 15.0  G = 0.15               [   ,-57]  (             - 2016 Feb.  6)
        m1 = 6.5 + 5 log d + 80   log r  [-57,-20]  (2016 Feb.  6 - 2016 Mar. 14)
        m1 = 9.5 + 5 log d + 30.0 log r  [-20,118]  (2016 Mar. 14 - 2016 July 30)
        H = 15.0  G = 0.15               [118,   ]  (2016 July 30 -             )

---------------------------------------------------------------------

The orbital elements are published on M.P.E.C. 2016-V116.
The charts are made with StellaNavigator Ver.8 (AstroArts).
The magnitudes graphs are made with Comet for Windows.

---------------------------------------------------------------------

Copyright(C) Seiichi Yoshida (comet@aerith.net). All rights reserved.